Flag for Afghanistan Weather past 2 weeks in Herat, Afghanistan

Now
86 °F

Passing clouds.


Feels Like: 83 °F
Forecast: 76 / 94 °F
Wind: 15 mph from North

Location: Herat Airport

Current Time: Jul 29, 2015 at 11:05:44 PM

Latest Report: Jul 29, 2015 at 9:24 PM


Visibility: N/A

Pressure: 29.80 "Hg (26.81 "Hg at 937m altitude)

Humidity: 8%

Dew point: 19 °F

Location of HeratLocation

Historic Weather in Herat — Graph

°F

Herat temperature yesterday

Maximum temperature yesterday: 95 °F (at 12:25 PM)
Minimum temperature yesterday: 75 °F (at 5:50 AM)
Average temperature yesterday: 89 °F

Past Weeks' High & Low Weather Summary

 TemperatureHumidityPressure
High102 °F (Jul 15, 1:25 PM)50% (Jul 21, 6:25 AM)29.92 "Hg (Jul 21, 6:25 AM)
Low70 °F (Jul 21, 6:25 AM)7% (Jul 15, 5:25 PM)29.62 "Hg (Jul 19, 4:25 PM)
Average90 °F16%29.77 "Hg
* Reported Jul 14 9:24 PM — Jul 29 9:24 PM, Herat, Weather by CustomWeather, © 2015

Note: Actual official high and low records may vary slightly from our data, if they occured in-between our weather recording intervals... More about our weather records

Advertising

Herat weather history for previous 24 hours

 ConditionsComfort  
Time TempWeatherWind HumidityBarometerVisibility
9:24 PM
Wed, Jul 29
86 °FPassing clouds.15 mph8%29.80 "HgN/A
8:25 PM88 °FPassing clouds.14 mph9%29.80 "HgN/A
7:25 PM90 °FPassing clouds.15 mph9%29.77 "HgN/A
6:25 PM91 °FSunny.15 mph9%29.74 "Hg10 mi
4:24 PM97 °FPassing clouds.17 mph8%29.74 "HgN/A
3:24 PM97 °FPassing clouds.16 mph9%29.74 "HgN/A
2:25 PM97 °FPassing clouds.14 mph9%29.74 "HgN/A
1:24 PM97 °FPassing clouds.16 mph9%29.77 "HgN/A
12:25 PM95 °FPassing clouds.13 mph11%29.77 "HgN/A
11:25 AM95 °FPassing clouds.12 mph11%29.77 "HgN/A
10:25 AM93 °FPassing clouds.10 mph13%29.80 "HgN/A
9:25 AM90 °FPassing clouds.13 mph16%29.80 "HgN/A
8:25 AM86 °FPassing clouds.7 mph18%29.80 "HgN/A
7:25 AM81 °FSunny.7 mph21%29.80 "Hg10 mi
6:25 AM75 °FSunny.1 mph25%29.80 "Hg10 mi
5:46 AM73 °FClear.3 mph27%29.80 "Hg10 mi
Weather by CustomWeather, © 2015

See weather overviewHow to use our weather pages